Louisa, VA

6:27 PM EDT on March 25, 2017 (GMT -0400)
Louisa County-Freeman

Weather History for KLKU - December, 2012

Change the Weather History Date:

Monday, December 24, 2012

  Actual Average (KOMH) Record (KOMH)
Temperature  
Mean Temperature 32 °F -  
Max Temperature 37 °F 46 °F 69 °F (2015)
Min Temperature 28 °F 25 °F -1 °F (1989)
Degree Days  
Heating Degree Days 32    
Moisture  
Dew Point 30 °F    
Average Humidity 84    
Maximum Humidity 100    
Minimum Humidity 52    
Precipitation  
Precipitation 0.13 in - - ()
Sea Level Pressure  
Sea Level Pressure 29.95 in    
Wind  
Wind Speed 2 mph (NE)    
Max Wind Speed 7 mph    
Max Gust Speed -    
Visibility 6 miles    
Events Rain , Snow    
Averages and records for this station are not official NWS values.
T = Trace of Precipitation, MM = Missing Value Source: NWS Daily Summary

Daily Weather History Graph

Daily Weather History Graph

Search for Another Location

Airport or City:

Trip Planner

Search our weather history database for the weather conditions in past years. The results will help you decide how hot, cold, wet, or windy it might be!

Date:

Astronomy

Dec. 24, 2012 Rise Set
Actual Time 7:25 AM EST 4:57 PM EST
Civil Twilight 6:56 AM EST 5:27 PM EST
Nautical Twilight 6:23 AM EST 6:00 PM EST
Astronomical Twilight 5:51 AM EST 6:32 PM EST
Moon 2:22 PM EST (12/24) 4:03 AM EST (12/24)
Length of Visible Light 10h 30m
Length of Day
9h 31m
Waxing Gibbous, 88% of the Moon is Illuminated
Dec 24
Waxing Gibbous
Dec 28
Full
Jan 4
Last Quarter
Jan 11
New
Jan 18
First Quarter

Hourly Weather History & Observations

Time (EST) Temp. Windchill Dew Point Humidity Pressure Visibility Wind Dir Wind Speed Gust Speed Precip Events Conditions
12:15 AM 35.6 °F 32.8 °F 24.8 °F 65% 29.97 in 10.0 mi SW 3.5 mph - N/A   Clear
12:35 AM 35.6 °F 32.8 °F 24.8 °F 65% 29.96 in 10.0 mi SW 3.5 mph - N/A   Clear
12:55 AM 37.4 °F 33.8 °F 21.2 °F 52% 29.96 in 10.0 mi WSW 4.6 mph - N/A   Clear
1:15 AM 33.8 °F - 23.0 °F 65% 29.96 in 10.0 mi Calm Calm - N/A   Clear
1:35 AM 35.6 °F - 21.2 °F 56% 29.96 in 10.0 mi Calm Calm - N/A   Clear
1:55 AM 33.8 °F - 21.2 °F 60% 29.96 in 10.0 mi Calm Calm - N/A   Clear
2:15 AM 33.8 °F - 23.0 °F 65% 29.97 in 10.0 mi Calm Calm - N/A   Clear
2:35 AM 30.2 °F - 24.8 °F 80% 29.97 in 10.0 mi Calm Calm - N/A   Clear
2:55 AM 30.2 °F 26.7 °F 24.8 °F 80% 29.98 in 10.0 mi East 3.5 mph - N/A   Clear
3:15 AM 32.0 °F 28.7 °F 23.0 °F 69% 29.99 in 10.0 mi ENE 3.5 mph - N/A   Clear
3:35 AM 30.2 °F 26.7 °F 23.0 °F 75% 29.98 in 10.0 mi East 3.5 mph - N/A   Clear
3:55 AM 30.2 °F - 23.0 °F 75% 29.98 in 10.0 mi Calm Calm - N/A   Clear
4:15 AM 30.2 °F - 24.8 °F 80% 29.98 in 10.0 mi Calm Calm - N/A   Clear
4:35 AM 28.4 °F - 23.0 °F 80% 29.99 in 10.0 mi Calm Calm - N/A   Clear
4:55 AM 28.4 °F - 23.0 °F 80% 29.99 in 10.0 mi Calm Calm - N/A   Clear
5:15 AM 28.4 °F - 21.2 °F 74% 30.00 in 10.0 mi Calm Calm - N/A   Clear
5:35 AM 28.4 °F - 23.0 °F 80% 29.99 in 10.0 mi Calm Calm - N/A   Clear
5:55 AM 28.4 °F - 23.0 °F 80% 30.00 in 10.0 mi Calm Calm - N/A   Clear
6:15 AM 30.2 °F 26.7 °F 23.0 °F 75% 30.00 in 10.0 mi North 3.5 mph - N/A   Clear
6:35 AM 32.0 °F 28.7 °F 23.0 °F 69% 30.01 in 10.0 mi NNE 3.5 mph - N/A   Clear
6:55 AM 30.2 °F 25.4 °F 23.0 °F 75% 30.00 in 10.0 mi ENE 4.6 mph - N/A   Clear
7:15 AM 33.8 °F 29.6 °F 24.8 °F 70% 30.01 in 10.0 mi NE 4.6 mph - N/A   Clear
7:35 AM 32.0 °F 28.7 °F 24.8 °F 75% 30.00 in 10.0 mi ENE 3.5 mph - N/A   Scattered Clouds
7:55 AM 33.8 °F 30.8 °F 24.8 °F 70% 30.00 in 10.0 mi ENE 3.5 mph - N/A   Clear
8:15 AM 33.8 °F - 26.6 °F 75% 30.02 in 10.0 mi Calm Calm - N/A   Mostly Cloudy
8:35 AM 33.8 °F - 26.6 °F 75% 30.04 in 10.0 mi Calm Calm - N/A   Overcast
8:55 AM 33.8 °F - 26.6 °F 75% 30.06 in 10.0 mi Calm Calm - N/A   Overcast
9:15 AM 33.8 °F - 26.6 °F 75% 30.05 in 10.0 mi Calm Calm - N/A   Overcast
9:35 AM 35.6 °F 32.8 °F 28.4 °F 75% 30.04 in 10.0 mi East 3.5 mph - N/A Snow Light Snow
9:55 AM 37.4 °F - 28.4 °F 70% 30.05 in 10.0 mi Calm Calm - N/A   Light Drizzle
10:15 AM 37.4 °F - 30.2 °F 75% 30.06 in 10.0 mi Calm Calm - N/A Rain Light Rain
10:35 AM 37.4 °F - 30.2 °F 75% 30.07 in 7.0 mi Calm Calm - N/A Rain Light Rain
10:55 AM 35.6 °F - 30.2 °F 81% 30.07 in 2.0 mi Calm Calm - N/A Snow Light Snow
11:15 AM 33.8 °F 28.6 °F 30.2 °F 87% 30.04 in 4.0 mi North 5.8 mph - N/A Snow Light Snow
11:35 AM 33.8 °F - 30.2 °F 87% 30.02 in 5.0 mi Calm Calm - 0.02 in Rain Light Rain
11:55 AM 35.6 °F - 32.0 °F 87% 30.01 in 10.0 mi Calm Calm - 0.03 in   Drizzle
12:15 PM 35.6 °F 31.7 °F 33.8 °F 93% 29.98 in 7.0 mi NE 4.6 mph - N/A   Drizzle
12:35 PM 35.6 °F 31.7 °F 33.8 °F 93% 29.97 in 7.0 mi ENE 4.6 mph - 0.01 in Rain Light Rain
12:55 PM 35.6 °F 32.8 °F 33.8 °F 93% 29.96 in 10.0 mi ENE 3.5 mph - 0.02 in Rain Light Rain
1:15 PM 37.4 °F 32.1 °F 33.8 °F 87% 29.94 in 7.0 mi ENE 6.9 mph - N/A Rain Rain
1:35 PM 37.4 °F 33.8 °F 35.6 °F 93% 29.92 in 7.0 mi East 4.6 mph - 0.01 in Rain Rain
1:55 PM 37.4 °F 32.8 °F 35.6 °F 93% 29.90 in 7.0 mi ENE 5.8 mph - 0.02 in Rain Light Rain
2:15 PM 37.4 °F - 35.6 °F 93% 29.91 in 7.0 mi Calm Calm - 0.02 in Rain Light Rain
2:35 PM 37.4 °F - 35.6 °F 93% 29.91 in 5.0 mi Calm Calm - 0.04 in Rain Light Rain
2:55 PM 37.4 °F - 35.6 °F 93% 29.90 in 4.0 mi Calm Calm - 0.04 in   Drizzle
3:15 PM 37.4 °F - 35.6 °F 93% 29.91 in 5.0 mi Calm Calm - 0.01 in Rain Rain
3:35 PM 37.4 °F - 35.6 °F 93% 29.91 in 2.5 mi Calm Calm - 0.01 in   Light Drizzle
3:55 PM 37.4 °F - 35.6 °F 93% 29.91 in 4.0 mi Calm Calm - 0.02 in   Light Drizzle
4:15 PM 37.4 °F - 35.6 °F 93% 29.90 in 5.0 mi Calm Calm - N/A   Light Drizzle
4:35 PM 37.4 °F - 35.6 °F 93% 29.90 in 5.0 mi Calm Calm - N/A   Overcast
4:55 PM 37.4 °F - 35.6 °F 93% 29.89 in 3.0 mi Calm Calm - N/A   Overcast
5:15 PM 37.4 °F 32.8 °F 35.6 °F 93% 29.90 in 1.8 mi NW 5.8 mph - N/A   Overcast
5:35 PM 35.6 °F 31.7 °F 35.6 °F 100% 29.90 in 2.0 mi NNW 4.6 mph - N/A   Overcast
5:55 PM 35.6 °F - 35.6 °F 100% 29.90 in 1.0 mi Calm Calm - N/A   Light Drizzle
6:15 PM 35.6 °F - 35.6 °F 100% 29.90 in 0.8 mi Calm Calm - N/A   Overcast
6:35 PM 35.6 °F 32.8 °F 35.6 °F 100% 29.89 in 1.2 mi NNE 3.5 mph - N/A   Overcast
6:55 PM 35.6 °F - 33.8 °F 93% 29.90 in 1.5 mi Calm Calm - N/A   Overcast
7:15 PM 35.6 °F 32.8 °F 35.6 °F 100% 29.90 in 1.8 mi NNW 3.5 mph - N/A   Overcast
7:35 PM 35.6 °F - 33.8 °F 93% 29.89 in 2.0 mi Calm Calm - N/A   Overcast
7:55 PM 35.6 °F 32.8 °F 33.8 °F 93% 29.89 in 1.5 mi NNW 3.5 mph - N/A   Overcast
8:15 PM 35.6 °F 32.8 °F 33.8 °F 93% 29.89 in 1.8 mi NNW 3.5 mph - N/A   Overcast
8:35 PM 35.6 °F - 33.8 °F 93% 29.89 in 1.5 mi Calm Calm - N/A   Overcast
8:55 PM 35.6 °F - 33.8 °F 93% 29.89 in 1.2 mi Calm Calm - N/A   Overcast
9:15 PM 35.6 °F - 33.8 °F 93% 29.89 in 1.2 mi Calm Calm - N/A   Overcast
9:35 PM 35.6 °F - 33.8 °F 93% 29.89 in 1.8 mi Calm Calm - N/A   Overcast
9:55 PM 35.6 °F - 33.8 °F 93% 29.89 in 1.8 mi Calm Calm - N/A   Overcast
10:15 PM 35.6 °F - 35.6 °F 100% 29.89 in 2.0 mi Calm Calm - N/A   Overcast
10:35 PM 35.6 °F - 35.6 °F 100% 29.89 in 1.5 mi Calm Calm - N/A   Overcast
10:55 PM 35.6 °F - 35.6 °F 100% 29.89 in 1.5 mi Calm Calm - N/A   Overcast
11:15 PM 35.6 °F - 35.6 °F 100% 29.88 in 1.8 mi Calm Calm - N/A   Overcast
11:35 PM 35.6 °F - 35.6 °F 100% 29.88 in 1.5 mi Calm Calm - N/A   Overcast
11:55 PM 35.6 °F 32.8 °F 35.6 °F 100% 29.88 in 1.8 mi SSW 3.5 mph - N/A   Overcast